Location: Shenandoah County Park
(38.9356°N, 78.4524°W)
Time: 14:50:59
(UTC-05:00)

Vanguard 2 Rocket - Pass Details

Date: 06 December 2023
Orbit: 555 x 3309 km, 32.9° (Epoch: 03 March)

Event Time Altitude Azimuth Distance (km) Brightness Sun altitude
Rises 11:19:00 0° 192° (SSW) 5,214 11.8 27.6°
Reaches altitude 10° 11:23:08 10° 178° (S) 4,645 12.2 27.8°
Maximum altitude 11:33:04 23° 132° (SE) 4,462 11.4 28.1°
Drops below altitude 10° 11:45:51 10° 89° (E) 6,137 11.2 28.4°
Sets 11:52:26 0° 78° (ENE) 7,289 11.4 28.5°
